Location: Banksville Park
(38.5557°N, 75.1182°W)
Time: 03:44:56
(UTC+00:00)

Envisat - Pass Details

Date: 30 November 2020
Orbit: 764 x 766 km, 98.1° (Epoch: 16 January)

Event Time Altitude Azimuth Distance (km) Brightness Sun altitude
Rises 10:57:30 0° 12° (NNE) 3,240 6.2 -11.8°
Reaches altitude 10° 10:59:48 10° 12° (NNE) 2,310 5.4 -11.4°
Maximum altitude 11:04:55 86° 283° (WNW) 772 3.0 -10.5°
Drops below altitude 10° 11:09:58 10° 196° (SSW) 2,293 5.5 -9.5°
Sets 11:12:15 0° 196° (SSW) 3,214 6.3 -9.1°
